Погода в Дермянинском

Россия / Вологодская область     59°26′31″N   37°47′38″E
темп.,
°C
ветер,
м/с
пор.,
м/с
влажн.,
%
обл.,
%
осадки,
мм/ч
давл.,
гПа
погр.,
м
19 апреля, пн
пн1900:00+3всв397079 0.0 1031320
03:00+1всв388089 0.0 1032262
06:000всв39825 0.0 1032321
09:00+4в48550 0.0 1032844
12:00+7в47445 0.0 10321447
15:00+8в46405 0.0 10311664
18:00+7в36475 0.0 10301345
21:00+3в296812 0.0 1031202
20 апреля, вт
вт2000:00+2в3107397 0.0 1031288
03:00−1в28815 0.0 1031209
06:00−1в3107554 0.0 1030314
09:00+4вюв59463 0.0 1029894
12:00+8вюв583791 0.0 10271386
15:00+9вюв584086 0.0 10251865
18:00+8вюв485197 0.0 10231144
21:00+5в4116199 0.0 1022451
21 апреля, ср
ср2100:00+4в31068100 0.0 1020374
03:00+3в51265100 0.0 1017580
06:00+2в61466100 0.0 1013753
09:000в61597100 2.5 1010759
12:00+2вюв61395100 1.9 1007873
15:00+1вюв51397100 3.4 1005656
18:00+1вюв41398100 2.1 1003806
21:00+2вюв41298100 3.3 1002760
22 апреля, чт
чт2200:00+4ююв4998100 0.7 1002762
03:00+1ююз51097100 1.6 1005969
06:00+2ю51197100 0.1 1007795
09:00+2ю51196100 0.2 1008910
12:00+3ююз51197100 0.3 1009803
15:00+3ююз41097100 1.1 1011718
18:00+5ю3995100 0.3 1012698
21:00+4ю3109893 0.3 1014266
23 апреля, пт
пт2300:00+4ю3129612 0.1 1014313
03:00+3ююв3129570 0.1 1014282
06:00+4ююв4129499 0.0 1014344
09:00+6ююв41094100 0.1 1014434
12:00+8ююв4990100 0.1 1014760
15:00+11ю498278 0.1 1013992
18:00+11юв5127953 0.3 1011876
21:00+9ююв61682100 0.8 1009823